Time,TemperatureF,DewpointF,PressureIn,WindDirection,WindDirectionDegrees,WindSpeedMPH,WindSpeedGustMPH,Humidity,HourlyPrecipIn,Conditions,Clouds,dailyrainin,SoftwareType,DateUTC
2013-09-16 00:00:00,55.1,54.0,30.17,NNE,15,5.0,8.0,96,0.00,,,0.00,Wunderground v.1.15,2013-09-16 05:00:00,
2013-09-16 00:04:00,55.0,53.9,30.17,North,6,5.0,8.0,96,0.00,,,0.00,Wunderground v.1.15,2013-09-16 05:04:00,
2013-09-16 00:06:00,55.0,53.9,30.17,NNW,336,5.0,8.0,96,0.00,,,0.00,Wunderground v.1.15,2013-09-16 05:06:00,
2013-09-16 00:08:00,55.0,53.9,30.17,North,4,5.0,8.0,96,0.00,,,0.00,Wunderground v.1.15,2013-09-16 05:08:00,
2013-09-16 00:10:00,55.0,53.9,30.17,North,351,5.0,8.0,96,0.00,,,0.00,Wunderground v.1.15,2013-09-16 05:10:00,
2013-09-16 00:16:00,55.0,53.9,30.17,NNE,15,5.0,8.0,96,0.00,,,0.00,Wunderground v.1.15,2013-09-16 05:16:00,
2013-09-16 00:22:00,55.0,53.9,30.18,North,11,5.0,7.0,96,0.00,,,0.00,Wunderground v.1.15,2013-09-16 05:22:00,
2013-09-16 00:26:00,55.1,54.0,30.18,NNE,26,5.0,8.0,96,0.00,,,0.00,Wunderground v.1.15,2013-09-16 05:26:00,
2013-09-16 00:32:00,55.0,53.9,30.18,NNE,12,5.0,8.0,96,0.00,,,0.00,Wunderground v.1.15,2013-09-16 05:32:00,
2013-09-16 00:34:00,55.0,53.9,30.18,North,8,5.0,8.0,96,0.00,,,0.00,Wunderground v.1.15,2013-09-16 05:34:00,
2013-09-16 00:36:00,54.9,53.8,30.18,North,11,5.0,8.0,96,0.00,,,0.00,Wunderground v.1.15,2013-09-16 05:36:00,
2013-09-16 00:38:00,54.8,53.7,30.18,North,358,4.0,8.0,96,0.00,,,0.00,Wunderground v.1.15,2013-09-16 05:38:00,
2013-09-16 00:40:00,54.8,53.7,30.18,NNE,15,4.0,8.0,96,0.00,,,0.00,Wunderground v.1.15,2013-09-16 05:40:00,
2013-09-16 00:42:00,54.7,53.6,30.18,NNE,25,4.0,8.0,96,0.00,,,0.00,Wunderground v.1.15,2013-09-16 05:42:00,
2013-09-16 00:44:00,54.6,53.5,30.18,NNE,23,4.0,8.0,96,0.00,,,0.00,Wunderground v.1.15,2013-09-16 05:44:00,
2013-09-16 00:46:00,54.5,53.4,30.18,North,4,4.0,8.0,96,0.00,,,0.00,Wunderground v.1.15,2013-09-16 05:46:00,
2013-09-16 00:48:00,54.5,53.4,30.18,NNE,13,4.0,8.0,96,0.00,,,0.00,Wunderground v.1.15,2013-09-16 05:48:00,
2013-09-16 00:52:00,54.4,53.3,30.19,NNE,29,4.0,8.0,96,0.00,,,0.00,Wunderground v.1.15,2013-09-16 05:52:00,
2013-09-16 00:54:00,54.4,53.3,30.19,North,359,4.0,8.0,96,0.00,,,0.00,Wunderground v.1.15,2013-09-16 05:54:00,
2013-09-16 00:56:00,54.3,53.2,30.19,NNE,15,4.0,8.0,96,0.00,,,0.00,Wunderground v.1.15,2013-09-16 05:56:00,
2013-09-16 01:00:00,54.2,53.1,30.19,North,8,4.0,8.0,96,0.00,,,0.00,Wunderground v.1.15,2013-09-16 06:00:00,
2013-09-16 01:02:00,54.1,53.0,30.19,NNE,15,4.0,8.0,96,0.00,,,0.00,Wunderground v.1.15,2013-09-16 06:02:00,
2013-09-16 01:04:00,54.1,53.0,30.19,NNE,15,3.0,8.0,96,0.00,,,0.00,Wunderground v.1.15,2013-09-16 06:04:00,
2013-09-16 01:06:00,54.1,53.0,30.19,NNE,18,4.0,8.0,96,0.00,,,0.00,Wunderground v.1.15,2013-09-16 06:06:00,
2013-09-16 01:08:00,54.0,53.2,30.19,NNE,18,4.0,8.0,97,0.00,,,0.00,Wunderground v.1.15,2013-09-16 06:08:00,
2013-09-16 01:10:00,54.0,53.2,30.19,NNE,26,4.0,8.0,97,0.00,,,0.00,Wunderground v.1.15,2013-09-16 06:10:00,
2013-09-16 01:16:00,54.2,53.4,30.19,North,6,5.0,8.0,97,0.00,,,0.00,Wunderground v.1.15,2013-09-16 06:16:00,
2013-09-16 01:18:00,54.3,53.5,30.19,NNE,23,5.0,8.0,97,0.00,,,0.00,Wunderground v.1.15,2013-09-16 06:18:00,
2013-09-16 01:20:00,54.5,53.7,30.19,NNE,18,5.0,8.0,97,0.00,,,0.00,Wunderground v.1.15,2013-09-16 06:20:00,
2013-09-16 01:24:00,54.7,53.9,30.19,North,1,6.0,8.0,97,0.00,,,0.00,Wunderground v.1.15,2013-09-16 06:24:00,
2013-09-16 01:26:00,54.8,54.0,30.19,NNE,18,6.0,8.0,97,0.00,,,0.00,Wunderground v.1.15,2013-09-16 06:26:00,
2013-09-16 01:30:00,54.9,54.1,30.19,NNE,15,6.0,6.0,97,0.00,,,0.00,Wunderground v.1.15,2013-09-16 06:30:00,
2013-09-16 01:32:00,54.9,54.1,30.19,NNE,24,5.0,8.0,97,0.00,,,0.00,Wunderground v.1.15,2013-09-16 06:32:00,
2013-09-16 01:36:00,55.0,54.2,30.19,NNE,15,5.0,8.0,97,0.00,,,0.00,Wunderground v.1.15,2013-09-16 06:36:00,
2013-09-16 01:40:00,55.1,54.3,30.20,NNE,26,6.0,6.0,97,0.00,,,0.00,Wunderground v.1.15,2013-09-16 06:40:00,
2013-09-16 01:42:00,55.3,54.5,30.20,NNE,32,6.0,8.0,97,0.00,,,0.00,Wunderground v.1.15,2013-09-16 06:42:00,
2013-09-16 01:44:00,55.4,54.6,30.20,NNE,23,6.0,8.0,97,0.00,,,0.00,Wunderground v.1.15,2013-09-16 06:44:00,
2013-09-16 01:46:00,55.5,54.7,30.20,NNE,18,6.0,8.0,97,0.00,,,0.00,Wunderground v.1.15,2013-09-16 06:46:00,
2013-09-16 01:50:00,55.7,54.9,30.20,NNE,27,7.0,8.0,97,0.00,,,0.00,Wunderground v.1.15,2013-09-16 06:50:00,
2013-09-16 01:52:00,55.8,55.0,30.20,North,359,7.0,8.0,97,0.00,,,0.00,Wunderground v.1.15,2013-09-16 06:52:00,
2013-09-16 01:54:00,55.8,55.0,30.20,North,356,7.0,8.0,97,0.00,,,0.00,Wunderground v.1.15,2013-09-16 06:54:00,
2013-09-16 01:56:00,55.9,55.1,30.20,NNE,15,7.0,8.0,97,0.00,,,0.00,Wunderground v.1.15,2013-09-16 06:56:00,
2013-09-16 02:00:00,56.0,55.2,30.20,North,11,7.0,8.0,97,0.00,,,0.00,Wunderground v.1.15,2013-09-16 07:00:00,
2013-09-16 02:02:00,56.1,55.3,30.20,NNE,25,7.0,8.0,97,0.00,,,0.00,Wunderground v.1.15,2013-09-16 07:02:00,
2013-09-16 02:04:00,56.1,55.3,30.20,NNE,23,7.0,8.0,97,0.00,,,0.00,Wunderground v.1.15,2013-09-16 07:04:00,
2013-09-16 02:06:00,56.2,55.4,30.20,North,9,7.0,8.0,97,0.00,,,0.00,Wunderground v.1.15,2013-09-16 07:06:00,
2013-09-16 02:10:00,56.3,55.5,30.20,NNE,13,6.0,6.0,97,0.00,,,0.00,Wunderground v.1.15,2013-09-16 07:10:00,
2013-09-16 02:12:00,56.3,55.5,30.20,North,8,6.0,8.0,97,0.00,,,0.00,Wunderground v.1.15,2013-09-16 07:12:00,
2013-09-16 02:16:00,56.3,55.5,30.21,NNE,27,5.0,8.0,97,0.00,,,0.00,Wunderground v.1.15,2013-09-16 07:16:00,
2013-09-16 02:20:00,56.5,55.7,30.21,NNE,20,6.0,8.0,97,0.00,,,0.00,Wunderground v.1.15,2013-09-16 07:20:00,
2013-09-16 02:22:00,56.5,55.7,30.20,NNE,12,6.0,8.0,97,0.00,,,0.00,Wunderground v.1.15,2013-09-16 07:22:00,
2013-09-16 02:24:00,56.6,55.8,30.21,NNE,15,6.0,8.0,97,0.00,,,0.00,Wunderground v.1.15,2013-09-16 07:24:00,
2013-09-16 02:26:00,56.6,55.8,30.21,North,8,6.0,8.0,97,0.00,,,0.00,Wunderground v.1.15,2013-09-16 07:26:00,
2013-09-16 02:28:00,56.7,55.9,30.21,NNE,15,7.0,8.0,97,0.00,,,0.00,Wunderground v.1.15,2013-09-16 07:28:00,
2013-09-16 02:30:00,56.7,55.9,30.21,NNE,20,7.0,7.0,97,0.00,,,0.00,Wunderground v.1.15,2013-09-16 07:30:00,
2013-09-16 02:32:00,56.8,56.0,30.21,NNE,20,7.0,9.0,97,0.00,,,0.00,Wunderground v.1.15,2013-09-16 07:32:00,
2013-09-16 02:34:00,56.8,56.0,30.21,North,360,7.0,9.0,97,0.00,,,0.00,Wunderground v.1.15,2013-09-16 07:34:00,
2013-09-16 02:36:00,56.9,56.1,30.21,NNE,16,7.0,9.0,97,0.00,,,0.00,Wunderground v.1.15,2013-09-16 07:36:00,
2013-09-16 02:38:00,57.0,56.2,30.21,NNE,16,7.0,9.0,97,0.00,,,0.00,Wunderground v.1.15,2013-09-16 07:38:00,
2013-09-16 02:40:00,57.1,56.0,30.21,NNW,333,8.0,8.0,96,0.00,,,0.00,Wunderground v.1.15,2013-09-16 07:40:00,
2013-09-16 02:42:00,57.2,56.1,30.21,NNE,15,8.0,8.0,96,0.00,,,0.00,Wunderground v.1.15,2013-09-16 07:42:00,
2013-09-16 02:46:00,57.3,56.2,30.21,NNE,29,8.0,8.0,96,0.00,,,0.00,Wunderground v.1.15,2013-09-16 07:46:00,
2013-09-16 02:48:00,57.3,55.9,30.22,NNE,20,8.0,8.0,95,0.00,,,0.00,Wunderground v.1.15,2013-09-16 07:48:00,
2013-09-16 02:50:00,57.4,56.0,30.22,NNE,27,8.0,8.0,95,0.00,,,0.00,Wunderground v.1.15,2013-09-16 07:50:00,
2013-09-16 02:52:00,57.4,56.0,30.22,North,6,8.0,8.0,95,0.00,,,0.00,Wunderground v.1.15,2013-09-16 07:52:00,
2013-09-16 02:54:00,57.4,56.0,30.22,North,8,8.0,9.0,95,0.00,,,0.00,Wunderground v.1.15,2013-09-16 07:54:00,
2013-09-16 02:58:00,57.3,55.6,30.22,North,5,9.0,14.0,94,0.00,,,0.00,Wunderground v.1.15,2013-09-16 07:58:00,
2013-09-16 03:00:00,57.2,55.5,30.22,NNE,26,10.0,12.0,94,0.00,,,0.00,Wunderground v.1.15,2013-09-16 08:00:00,
2013-09-16 03:02:00,57.2,55.2,30.22,NNE,30,11.0,12.0,93,0.00,,,0.00,Wunderground v.1.15,2013-09-16 08:02:00,
2013-09-16 03:04:00,57.2,55.2,30.22,NNE,19,11.0,12.0,93,0.00,,,0.00,Wunderground v.1.15,2013-09-16 08:04:00,
2013-09-16 03:06:00,57.1,55.1,30.22,East,88,11.0,12.0,93,0.00,,,0.00,Wunderground v.1.15,2013-09-16 08:06:00,
2013-09-16 03:10:00,57.0,55.0,30.22,NNE,25,11.0,11.0,93,0.00,,,0.00,Wunderground v.1.15,2013-09-16 08:10:00,
2013-09-16 03:14:00,57.1,55.1,30.22,NE,53,12.0,14.0,93,0.00,,,0.00,Wunderground v.1.15,2013-09-16 08:14:00,
2013-09-16 03:16:00,57.0,55.0,30.23,NNE,13,12.0,14.0,93,0.00,,,0.00,Wunderground v.1.15,2013-09-16 08:16:00,
2013-09-16 03:18:00,57.0,55.0,30.23,NNE,13,12.0,14.0,93,0.00,,,0.00,Wunderground v.1.15,2013-09-16 08:18:00,
2013-09-16 03:20:00,57.0,55.0,30.23,NNE,22,12.0,15.0,93,0.00,,,0.00,Wunderground v.1.15,2013-09-16 08:20:00,
2013-09-16 03:22:00,56.9,54.6,30.23,NNE,31,11.0,15.0,92,0.00,,,0.00,Wunderground v.1.15,2013-09-16 08:22:00,
2013-09-16 03:24:00,56.9,54.6,30.23,NNE,15,11.0,15.0,92,0.00,,,0.00,Wunderground v.1.15,2013-09-16 08:24:00,
2013-09-16 03:26:00,56.9,54.6,30.23,NE,43,11.0,15.0,92,0.00,,,0.00,Wunderground v.1.15,2013-09-16 08:26:00,
2013-09-16 03:30:00,56.9,54.6,30.24,NNE,25,11.0,12.0,92,0.00,,,0.00,Wunderground v.1.15,2013-09-16 08:30:00,
2013-09-16 03:32:00,56.9,54.6,30.23,NNE,20,11.0,12.0,92,0.00,,,0.00,Wunderground v.1.15,2013-09-16 08:32:00,
2013-09-16 03:36:00,56.8,54.5,30.24,North,5,10.0,12.0,92,0.00,,,0.00,Wunderground v.1.15,2013-09-16 08:36:00,
2013-09-16 03:38:00,56.8,54.8,30.24,NNE,25,10.0,12.0,93,0.00,,,0.00,Wunderground v.1.15,2013-09-16 08:38:00,
2013-09-16 03:40:00,56.8,54.8,30.24,NNE,33,9.0,9.0,93,0.00,,,0.00,Wunderground v.1.15,2013-09-16 08:40:00,
2013-09-16 03:44:00,56.7,54.7,30.24,NNE,12,9.0,9.0,93,0.00,,,0.00,Wunderground v.1.15,2013-09-16 08:44:00,
2013-09-16 03:48:00,56.6,54.6,30.24,NNW,337,8.0,9.0,93,0.00,,,0.00,Wunderground v.1.15,2013-09-16 08:48:00,
2013-09-16 03:50:00,56.6,54.9,30.24,North,8,8.0,8.0,94,0.00,,,0.00,Wunderground v.1.15,2013-09-16 08:50:00,
2013-09-16 03:54:00,56.5,54.8,30.24,NNE,15,7.0,9.0,94,0.00,,,0.00,Wunderground v.1.15,2013-09-16 08:54:00,
2013-09-16 03:56:00,56.4,54.7,30.24,NNE,20,8.0,9.0,94,0.00,,,0.00,Wunderground v.1.15,2013-09-16 08:56:00,
2013-09-16 03:58:00,56.3,54.6,30.24,NNE,26,8.0,9.0,94,0.00,,,0.00,Wunderground v.1.15,2013-09-16 08:58:00,
2013-09-16 04:00:00,56.3,54.6,30.24,NNE,15,8.0,8.0,94,0.00,,,0.00,Wunderground v.1.15,2013-09-16 09:00:00,
2013-09-16 04:04:00,56.2,54.5,30.24,North,4,9.0,14.0,94,0.00,,,0.00,Wunderground v.1.15,2013-09-16 09:04:00,
2013-09-16 04:06:00,56.1,54.1,30.24,NE,40,9.0,14.0,93,0.00,,,0.00,Wunderground v.1.15,2013-09-16 09:06:00,
2013-09-16 04:08:00,56.0,54.0,30.24,North,11,10.0,14.0,93,0.00,,,0.00,Wunderground v.1.15,2013-09-16 09:08:00,
2013-09-16 04:10:00,55.9,53.6,30.24,NNE,29,11.0,11.0,92,0.00,,,0.00,Wunderground v.1.15,2013-09-16 09:10:00,
2013-09-16 04:14:00,55.8,53.5,30.24,NNE,26,11.0,11.0,92,0.00,,,0.00,Wunderground v.1.15,2013-09-16 09:14:00,
2013-09-16 04:16:00,55.6,53.3,30.24,NW,323,10.0,11.0,92,0.00,,,0.00,Wunderground v.1.15,2013-09-16 09:16:00,
2013-09-16 04:18:00,55.5,53.2,30.25,NNE,29,10.0,13.0,92,0.00,,,0.00,Wunderground v.1.15,2013-09-16 09:18:00,
2013-09-16 04:24:00,55.1,52.8,30.25,NNE,22,9.0,14.0,92,0.00,,,0.00,Wunderground v.1.15,2013-09-16 09:24:00,
2013-09-16 04:26:00,54.9,52.6,30.25,NE,40,9.0,14.0,92,0.00,,,0.00,Wunderground v.1.15,2013-09-16 09:26:00,
2013-09-16 04:28:00,54.8,52.8,30.25,NNE,19,9.0,14.0,93,0.00,,,0.00,Wunderground v.1.15,2013-09-16 09:28:00,
2013-09-16 04:30:00,54.7,52.7,30.25,NNE,15,8.0,8.0,93,0.00,,,0.00,Wunderground v.1.15,2013-09-16 09:30:00,
2013-09-16 04:34:00,54.5,52.5,30.25,NNW,340,7.0,8.0,93,0.00,,,0.00,Wunderground v.1.15,2013-09-16 09:34:00,
2013-09-16 04:36:00,54.4,52.7,30.25,NNE,25,7.0,8.0,94,0.00,,,0.00,Wunderground v.1.15,2013-09-16 09:36:00,
2013-09-16 04:38:00,54.3,52.6,30.25,NNE,23,7.0,8.0,94,0.00,,,0.00,Wunderground v.1.15,2013-09-16 09:38:00,
2013-09-16 04:42:00,54.2,52.5,30.25,NNE,26,7.0,8.0,94,0.00,,,0.00,Wunderground v.1.15,2013-09-16 09:42:00,
2013-09-16 04:44:00,54.2,52.5,30.25,NNE,15,7.0,8.0,94,0.00,,,0.00,Wunderground v.1.15,2013-09-16 09:44:00,
2013-09-16 04:46:00,54.2,52.5,30.25,NNE,26,7.0,11.0,94,0.00,,,0.00,Wunderground v.1.15,2013-09-16 09:46:00,
2013-09-16 04:48:00,54.1,52.4,30.25,NNE,18,8.0,11.0,94,0.00,,,0.00,Wunderground v.1.15,2013-09-16 09:48:00,
2013-09-16 04:50:00,54.1,52.4,30.25,NNE,19,8.0,8.0,94,0.00,,,0.00,Wunderground v.1.15,2013-09-16 09:50:00,
2013-09-16 04:52:00,54.0,52.3,30.25,North,1,8.0,8.0,94,0.00,,,0.00,Wunderground v.1.15,2013-09-16 09:52:00,
2013-09-16 04:58:00,53.8,52.1,30.26,NE,34,7.0,9.0,94,0.00,,,0.00,Wunderground v.1.15,2013-09-16 09:58:00,
2013-09-16 05:00:00,53.7,52.0,30.26,NNE,25,7.0,8.0,94,0.00,,,0.00,Wunderground v.1.15,2013-09-16 10:00:00,
2013-09-16 05:02:00,53.7,52.0,30.26,NNE,19,7.0,8.0,94,0.00,,,0.00,Wunderground v.1.15,2013-09-16 10:02:00,
2013-09-16 05:04:00,53.6,51.9,30.26,North,5,7.0,11.0,94,0.00,,,0.00,Wunderground v.1.15,2013-09-16 10:04:00,
2013-09-16 05:08:00,53.4,51.7,30.26,NNE,23,7.0,11.0,94,0.00,,,0.00,Wunderground v.1.15,2013-09-16 10:08:00,
2013-09-16 05:10:00,53.3,51.9,30.26,North,11,6.0,6.0,95,0.00,,,0.00,Wunderground v.1.15,2013-09-16 10:10:00,
2013-09-16 05:12:00,53.2,51.8,30.26,North,6,6.0,8.0,95,0.00,,,0.00,Wunderground v.1.15,2013-09-16 10:12:00,
2013-09-16 05:16:00,53.0,51.6,30.27,North,11,5.0,8.0,95,0.00,,,0.00,Wunderground v.1.15,2013-09-16 10:16:00,
2013-09-16 05:18:00,52.9,51.5,30.26,NNE,20,5.0,8.0,95,0.00,,,0.00,Wunderground v.1.15,2013-09-16 10:18:00,
2013-09-16 05:20:00,52.8,51.4,30.27,NNE,15,5.0,8.0,95,0.00,,,0.00,Wunderground v.1.15,2013-09-16 10:20:00,
2013-09-16 05:22:00,52.7,51.3,30.27,NNE,29,4.0,8.0,95,0.00,,,0.00,Wunderground v.1.15,2013-09-16 10:22:00,
2013-09-16 05:28:00,52.4,51.0,30.27,NNE,20,4.0,8.0,95,0.00,,,0.00,Wunderground v.1.15,2013-09-16 10:28:00,
2013-09-16 05:30:00,52.4,51.0,30.27,North,354,4.0,8.0,95,0.00,,,0.00,Wunderground v.1.15,2013-09-16 10:30:00,
2013-09-16 05:34:00,52.2,51.1,30.27,NNE,27,4.0,8.0,96,0.00,,,0.00,Wunderground v.1.15,2013-09-16 10:34:00,
2013-09-16 05:36:00,52.2,51.1,30.27,NNE,27,4.0,8.0,96,0.00,,,0.00,Wunderground v.1.15,2013-09-16 10:36:00,
2013-09-16 05:40:00,52.1,51.0,30.27,North,6,4.0,8.0,96,0.00,,,0.00,Wunderground v.1.15,2013-09-16 10:40:00,
2013-09-16 05:42:00,52.0,50.9,30.27,NNE,20,5.0,8.0,96,0.00,,,0.00,Wunderground v.1.15,2013-09-16 10:42:00,
2013-09-16 05:44:00,52.0,50.9,30.27,NNE,30,5.0,8.0,96,0.00,,,0.00,Wunderground v.1.15,2013-09-16 10:44:00,
2013-09-16 05:48:00,52.0,50.9,30.28,NNE,26,6.0,8.0,96,0.00,,,0.00,Wunderground v.1.15,2013-09-16 10:48:00,
2013-09-16 05:52:00,52.0,50.9,30.28,NNE,33,6.0,8.0,96,0.00,,,0.00,Wunderground v.1.15,2013-09-16 10:52:00,
2013-09-16 05:54:00,52.0,50.9,30.28,North,4,6.0,8.0,96,0.00,,,0.00,Wunderground v.1.15,2013-09-16 10:54:00,
2013-09-16 05:56:00,51.9,50.8,30.28,NNE,33,6.0,8.0,96,0.00,,,0.00,Wunderground v.1.15,2013-09-16 10:56:00,
2013-09-16 05:58:00,51.9,50.8,30.28,NNE,29,5.0,8.0,96,0.00,,,0.00,Wunderground v.1.15,2013-09-16 10:58:00,
2013-09-16 06:00:00,51.8,50.7,30.28,NNE,20,5.0,8.0,96,0.00,,,0.00,Wunderground v.1.15,2013-09-16 11:00:00,
2013-09-16 06:02:00,51.8,50.7,30.28,North,8,5.0,8.0,96,0.00,,,0.00,Wunderground v.1.15,2013-09-16 11:02:00,
2013-09-16 06:04:00,51.8,50.7,30.28,NNE,25,5.0,8.0,96,0.00,,,0.00,Wunderground v.1.15,2013-09-16 11:04:00,
2013-09-16 06:08:00,51.7,50.6,30.28,NNE,29,6.0,8.0,96,0.00,,,0.00,Wunderground v.1.15,2013-09-16 11:08:00,
2013-09-16 06:10:00,51.7,50.6,30.28,NNE,20,6.0,8.0,96,0.00,,,0.00,Wunderground v.1.15,2013-09-16 11:10:00,
2013-09-16 06:12:00,51.7,50.3,30.28,NNE,32,6.0,8.0,95,0.00,,,0.00,Wunderground v.1.15,2013-09-16 11:12:00,
2013-09-16 06:16:00,51.7,50.3,30.29,NNE,27,6.0,9.0,95,0.00,,,0.00,Wunderground v.1.15,2013-09-16 11:16:00,
2013-09-16 06:18:00,51.6,50.2,30.29,NNE,29,6.0,9.0,95,0.00,,,0.00,Wunderground v.1.15,2013-09-16 11:18:00,
2013-09-16 06:20:00,51.6,50.2,30.29,NNE,15,6.0,8.0,95,0.00,,,0.00,Wunderground v.1.15,2013-09-16 11:20:00,
2013-09-16 06:22:00,51.6,50.2,30.29,North,9,6.0,8.0,95,0.00,,,0.00,Wunderground v.1.15,2013-09-16 11:22:00,
2013-09-16 06:24:00,51.5,50.1,30.29,NNE,20,6.0,8.0,95,0.00,,,0.00,Wunderground v.1.15,2013-09-16 11:24:00,
2013-09-16 06:26:00,51.5,50.1,30.29,North,6,6.0,8.0,95,0.00,,,0.00,Wunderground v.1.15,2013-09-16 11:26:00,
2013-09-16 06:28:00,51.4,50.0,30.29,NNE,20,6.0,8.0,95,0.00,,,0.00,Wunderground v.1.15,2013-09-16 11:28:00,
2013-09-16 06:30:00,51.4,50.0,30.29,North,6,6.0,8.0,95,0.00,,,0.00,Wunderground v.1.15,2013-09-16 11:30:00,
2013-09-16 06:34:00,51.3,49.9,30.29,NNE,20,6.0,8.0,95,0.00,,,0.00,Wunderground v.1.15,2013-09-16 11:34:00,
2013-09-16 06:36:00,51.3,49.9,30.30,NNE,30,6.0,8.0,95,0.00,,,0.00,Wunderground v.1.15,2013-09-16 11:36:00,
2013-09-16 06:38:00,51.2,49.8,30.30,NNE,25,6.0,8.0,95,0.00,,,0.00,Wunderground v.1.15,2013-09-16 11:38:00,
2013-09-16 06:40:00,51.2,49.8,30.30,North,358,6.0,6.0,95,0.00,,,0.00,Wunderground v.1.15,2013-09-16 11:40:00,
2013-09-16 06:42:00,51.1,49.7,30.30,NNE,25,6.0,8.0,95,0.00,,,0.00,Wunderground v.1.15,2013-09-16 11:42:00,
2013-09-16 06:44:00,51.1,49.7,30.30,NNE,16,5.0,8.0,95,0.00,,,0.00,Wunderground v.1.15,2013-09-16 11:44:00,
2013-09-16 06:46:00,51.1,49.7,30.30,NNE,18,5.0,8.0,95,0.00,,,0.00,Wunderground v.1.15,2013-09-16 11:46:00,
2013-09-16 06:50:00,51.1,49.7,30.30,North,6,5.0,5.0,95,0.00,,,0.00,Wunderground v.1.15,2013-09-16 11:50:00,
2013-09-16 06:52:00,51.1,49.7,30.30,NNE,16,4.0,8.0,95,0.00,,,0.00,Wunderground v.1.15,2013-09-16 11:52:00,
2013-09-16 06:54:00,51.1,49.7,30.30,North,359,4.0,8.0,95,0.00,,,0.00,Wunderground v.1.15,2013-09-16 11:54:00,
2013-09-16 06:58:00,51.2,49.8,30.30,NNW,346,4.0,8.0,95,0.00,,,0.00,Wunderground v.1.15,2013-09-16 11:58:00,
2013-09-16 07:02:00,51.2,49.8,30.30,North,9,5.0,8.0,95,0.00,,,0.00,Wunderground v.1.15,2013-09-16 12:02:00,
2013-09-16 07:04:00,51.3,49.9,30.30,North,1,5.0,8.0,95,0.00,,,0.00,Wunderground v.1.15,2013-09-16 12:04:00,
2013-09-16 07:08:00,51.3,49.9,30.30,North,358,5.0,8.0,95,0.00,,,0.00,Wunderground v.1.15,2013-09-16 12:08:00,
2013-09-16 07:10:00,51.4,50.0,30.31,North,11,4.0,8.0,95,0.00,,,0.00,Wunderground v.1.15,2013-09-16 12:10:00,
2013-09-16 07:12:00,51.4,50.0,30.31,NNE,24,5.0,8.0,95,0.00,,,0.00,Wunderground v.1.15,2013-09-16 12:12:00,
2013-09-16 07:16:00,51.5,50.1,30.31,North,11,5.0,8.0,95,0.00,,,0.00,Wunderground v.1.15,2013-09-16 12:16:00,
2013-09-16 07:20:00,51.7,50.3,30.32,North,8,6.0,8.0,95,0.00,,,0.00,Wunderground v.1.15,2013-09-16 12:20:00,
2013-09-16 07:22:00,51.7,50.3,30.32,NNE,19,6.0,8.0,95,0.00,,,0.00,Wunderground v.1.15,2013-09-16 12:22:00,
2013-09-16 07:24:00,51.8,50.1,30.32,North,8,6.0,8.0,94,0.00,,,0.00,Wunderground v.1.15,2013-09-16 12:24:00,
2013-09-16 07:28:00,52.0,50.3,30.32,NNE,13,6.0,8.0,94,0.00,,,0.00,Wunderground v.1.15,2013-09-16 12:28:00,
2013-09-16 07:30:00,52.0,50.3,30.32,North,8,6.0,10.0,94,0.00,,,0.00,Wunderground v.1.15,2013-09-16 12:30:00,
2013-09-16 07:34:00,52.2,50.5,30.32,North,8,6.0,10.0,94,0.00,,,0.00,Wunderground v.1.15,2013-09-16 12:34:00,
2013-09-16 07:36:00,52.3,50.6,30.32,North,354,7.0,10.0,94,0.00,,,0.00,Wunderground v.1.15,2013-09-16 12:36:00,
2013-09-16 07:40:00,52.6,50.9,30.32,North,8,7.0,8.0,94,0.00,,,0.00,Wunderground v.1.15,2013-09-16 12:40:00,
2013-09-16 07:42:00,52.7,51.0,30.32,North,356,7.0,9.0,94,0.00,,,0.00,Wunderground v.1.15,2013-09-16 12:42:00,
2013-09-16 07:46:00,52.8,50.8,30.32,North,8,7.0,9.0,93,0.00,,,0.00,Wunderground v.1.15,2013-09-16 12:46:00,
2013-09-16 07:48:00,53.0,51.0,30.32,NNE,23,7.0,9.0,93,0.00,,,0.00,Wunderground v.1.15,2013-09-16 12:48:00,
2013-09-16 07:50:00,53.1,51.1,30.32,NNE,13,7.0,11.0,93,0.00,,,0.00,Wunderground v.1.15,2013-09-16 12:50:00,
2013-09-16 07:52:00,53.2,51.2,30.32,North,5,7.0,11.0,93,0.00,,,0.00,Wunderground v.1.15,2013-09-16 12:52:00,
2013-09-16 07:54:00,53.3,51.0,30.32,North,5,7.0,11.0,92,0.00,,,0.00,Wunderground v.1.15,2013-09-16 12:54:00,
2013-09-16 07:56:00,53.4,51.1,30.32,NNE,30,8.0,12.0,92,0.00,,,0.00,Wunderground v.1.15,2013-09-16 12:56:00,
2013-09-16 07:58:00,53.4,51.1,30.32,NNE,13,9.0,12.0,92,0.00,,,0.00,Wunderground v.1.15,2013-09-16 12:58:00,
2013-09-16 08:02:00,53.4,51.1,30.32,North,1,10.0,13.0,92,0.00,,,0.00,Wunderground v.1.15,2013-09-16 13:02:00,
2013-09-16 08:04:00,53.4,50.8,30.32,NNW,346,10.0,13.0,91,0.00,,,0.00,Wunderground v.1.15,2013-09-16 13:04:00,
2013-09-16 08:08:00,53.4,51.1,30.32,North,11,9.0,13.0,92,0.00,,,0.00,Wunderground v.1.15,2013-09-16 13:08:00,
2013-09-16 08:10:00,53.4,50.8,30.32,North,357,9.0,9.0,91,0.00,,,0.00,Wunderground v.1.15,2013-09-16 13:10:00,
2013-09-16 08:12:00,53.3,50.4,30.32,North,9,9.0,11.0,90,0.00,,,0.00,Wunderground v.1.15,2013-09-16 13:12:00,
2013-09-16 08:18:00,53.6,50.7,30.33,North,8,9.0,11.0,90,0.00,,,0.00,Wunderground v.1.15,2013-09-16 13:18:00,
2013-09-16 08:20:00,53.7,50.8,30.33,North,11,9.0,9.0,90,0.00,,,0.00,Wunderground v.1.15,2013-09-16 13:20:00,
2013-09-16 08:24:00,53.8,50.6,30.33,North,11,8.0,9.0,89,0.00,,,0.00,Wunderground v.1.15,2013-09-16 13:24:00,
2013-09-16 08:26:00,53.9,50.4,30.33,NNE,23,9.0,13.0,88,0.00,,,0.00,Wunderground v.1.15,2013-09-16 13:26:00,
2013-09-16 08:28:00,53.9,50.4,30.33,NW,323,9.0,13.0,88,0.00,,,0.00,Wunderground v.1.15,2013-09-16 13:28:00,
2013-09-16 08:30:00,54.0,50.5,30.33,NNE,16,9.0,12.0,88,0.00,,,0.00,Wunderground v.1.15,2013-09-16 13:30:00,
2013-09-16 08:34:00,54.1,50.6,30.33,North,8,10.0,12.0,88,0.00,,,0.00,Wunderground v.1.15,2013-09-16 13:34:00,
2013-09-16 08:36:00,54.2,50.7,30.33,NNE,20,10.0,12.0,88,0.00,,,0.00,Wunderground v.1.15,2013-09-16 13:36:00,
2013-09-16 08:38:00,54.4,50.6,30.33,North,1,9.0,12.0,87,0.00,,,0.00,Wunderground v.1.15,2013-09-16 13:38:00,
2013-09-16 08:40:00,54.6,50.8,30.33,North,360,9.0,9.0,87,0.00,,,0.00,Wunderground v.1.15,2013-09-16 13:40:00,
2013-09-16 08:44:00,54.8,50.4,30.34,NNE,25,8.0,9.0,85,0.00,,,0.00,Wunderground v.1.15,2013-09-16 13:44:00,
2013-09-16 08:46:00,54.9,50.8,30.34,North,6,8.0,12.0,86,0.00,,,0.00,Wunderground v.1.15,2013-09-16 13:46:00,
2013-09-16 08:48:00,54.9,50.5,30.34,NNE,12,8.0,12.0,85,0.00,,,0.00,Wunderground v.1.15,2013-09-16 13:48:00,
2013-09-16 08:54:00,55.0,50.3,30.34,North,4,9.0,9.0,84,0.00,,,0.00,Wunderground v.1.15,2013-09-16 13:54:00,
2013-09-16 08:56:00,54.8,50.1,30.34,NNE,30,9.0,11.0,84,0.00,,,0.00,Wunderground v.1.15,2013-09-16 13:56:00,
2013-09-16 08:58:00,54.9,50.5,30.34,North,5,9.0,11.0,85,0.00,,,0.00,Wunderground v.1.15,2013-09-16 13:58:00,
2013-09-16 09:00:00,55.0,50.6,30.34,North,9,9.0,12.0,85,0.00,,,0.00,Wunderground v.1.15,2013-09-16 14:00:00,
2013-09-16 09:02:00,54.9,50.2,30.34,North,5,10.0,12.0,84,0.00,,,0.00,Wunderground v.1.15,2013-09-16 14:02:00,
2013-09-16 09:10:00,55.1,50.4,30.35,NNE,13,10.0,10.0,84,0.00,,,0.00,Wunderground v.1.15,2013-09-16 14:10:00,
2013-09-16 09:14:00,55.2,50.4,30.35,NNE,23,9.0,13.0,84,0.00,,,0.00,Wunderground v.1.15,2013-09-16 14:14:00,
2013-09-16 09:16:00,55.3,50.9,30.35,NNE,18,9.0,13.0,85,0.00,,,0.00,Wunderground v.1.15,2013-09-16 14:16:00,
2013-09-16 09:18:00,55.4,50.3,30.35,NNE,15,9.0,13.0,83,0.00,,,0.00,Wunderground v.1.15,2013-09-16 14:18:00,
2013-09-16 09:20:00,55.2,50.4,30.35,NNE,26,9.0,11.0,84,0.00,,,0.00,Wunderground v.1.15,2013-09-16 14:20:00,
2013-09-16 09:22:00,55.2,50.4,30.35,North,5,9.0,11.0,84,0.00,,,0.00,Wunderground v.1.15,2013-09-16 14:22:00,
2013-09-16 09:24:00,55.1,50.0,30.35,North,9,9.0,11.0,83,0.00,,,0.00,Wunderground v.1.15,2013-09-16 14:24:00,
2013-09-16 09:26:00,55.3,50.5,30.35,North,11,9.0,11.0,84,0.00,,,0.00,Wunderground v.1.15,2013-09-16 14:26:00,
2013-09-16 09:28:00,55.3,50.5,30.35,NNE,15,9.0,14.0,84,0.00,,,0.00,Wunderground v.1.15,2013-09-16 14:28:00,
2013-09-16 09:32:00,55.5,50.7,30.35,NNE,12,9.0,11.0,84,0.00,,,0.00,Wunderground v.1.15,2013-09-16 14:32:00,
2013-09-16 09:34:00,55.6,50.5,30.35,NNE,25,9.0,11.0,83,0.00,,,0.00,Wunderground v.1.15,2013-09-16 14:34:00,
2013-09-16 09:38:00,55.8,50.4,30.35,NE,53,9.0,12.0,82,0.00,,,0.00,Wunderground v.1.15,2013-09-16 14:38:00,
2013-09-16 09:42:00,55.9,50.5,30.35,NNE,27,9.0,11.0,82,0.00,,,0.00,Wunderground v.1.15,2013-09-16 14:42:00,
2013-09-16 09:44:00,55.9,50.2,30.35,ENE,63,9.0,11.0,81,0.00,,,0.00,Wunderground v.1.15,2013-09-16 14:44:00,
2013-09-16 09:48:00,56.2,50.8,30.35,North,349,9.0,11.0,82,0.00,,,0.00,Wunderground v.1.15,2013-09-16 14:48:00,
2013-09-16 09:50:00,56.3,50.2,30.35,NNE,27,9.0,9.0,80,0.00,,,0.00,Wunderground v.1.15,2013-09-16 14:50:00,
2013-09-16 09:54:00,56.4,50.3,30.35,North,5,9.0,13.0,80,0.00,,,0.00,Wunderground v.1.15,2013-09-16 14:54:00,
2013-09-16 09:56:00,56.6,50.8,30.35,NNE,27,9.0,13.0,81,0.00,,,0.00,Wunderground v.1.15,2013-09-16 14:56:00,
2013-09-16 09:58:00,56.8,50.4,30.35,NNE,26,9.0,13.0,79,0.00,,,0.00,Wunderground v.1.15,2013-09-16 14:58:00,
2013-09-16 10:00:00,56.6,50.2,30.35,NNE,19,9.0,11.0,79,0.00,,,0.00,Wunderground v.1.15,2013-09-16 15:00:00,
2013-09-16 10:06:00,56.8,50.4,30.35,NE,39,10.0,11.0,79,0.00,,,0.00,Wunderground v.1.15,2013-09-16 15:06:00,
2013-09-16 10:10:00,57.2,50.7,30.35,NE,51,9.0,9.0,79,0.00,,,0.00,Wunderground v.1.15,2013-09-16 15:10:00,
2013-09-16 10:12:00,57.4,50.6,30.35,NNE,29,9.0,9.0,78,0.00,,,0.00,Wunderground v.1.15,2013-09-16 15:12:00,
2013-09-16 10:16:00,57.7,50.9,30.35,NNE,19,9.0,9.0,78,0.00,,,0.00,Wunderground v.1.15,2013-09-16 15:16:00,
2013-09-16 10:18:00,57.8,50.6,30.35,NNE,23,8.0,9.0,77,0.00,,,0.00,Wunderground v.1.15,2013-09-16 15:18:00,
2013-09-16 10:20:00,57.9,50.4,30.35,North,11,8.0,11.0,76,0.00,,,0.00,Wunderground v.1.15,2013-09-16 15:20:00,
2013-09-16 10:22:00,57.8,50.3,30.35,NNW,347,9.0,11.0,76,0.00,,,0.00,Wunderground v.1.15,2013-09-16 15:22:00,
2013-09-16 10:26:00,57.8,50.6,30.35,NNE,29,8.0,11.0,77,0.00,,,0.00,Wunderground v.1.15,2013-09-16 15:26:00,
2013-09-16 10:28:00,57.9,50.7,30.35,ENE,65,9.0,11.0,77,0.00,,,0.00,Wunderground v.1.15,2013-09-16 15:28:00,
2013-09-16 10:30:00,58.0,50.5,30.35,NNE,33,8.0,8.0,76,0.00,,,0.00,Wunderground v.1.15,2013-09-16 15:30:00,
2013-09-16 10:34:00,58.2,51.0,30.35,NNE,18,9.0,13.0,77,0.00,,,0.00,Wunderground v.1.15,2013-09-16 15:34:00,
2013-09-16 10:36:00,58.4,50.9,30.35,North,6,8.0,13.0,76,0.00,,,0.00,Wunderground v.1.15,2013-09-16 15:36:00,
2013-09-16 10:38:00,58.8,51.2,30.35,NE,53,8.0,13.0,76,0.00,,,0.00,Wunderground v.1.15,2013-09-16 15:38:00,
2013-09-16 10:40:00,58.8,50.9,30.35,NNE,23,8.0,11.0,75,0.00,,,0.00,Wunderground v.1.15,2013-09-16 15:40:00,
2013-09-16 10:46:00,59.0,50.7,30.35,NNE,18,8.0,12.0,74,0.00,,,0.00,Wunderground v.1.15,2013-09-16 15:46:00,
2013-09-16 10:48:00,59.1,51.2,30.35,NNE,25,8.0,12.0,75,0.00,,,0.00,Wunderground v.1.15,2013-09-16 15:48:00,
2013-09-16 10:50:00,59.3,51.4,30.35,NE,44,8.0,9.0,75,0.00,,,0.00,Wunderground v.1.15,2013-09-16 15:50:00,
2013-09-16 10:54:00,59.4,50.7,30.35,NE,50,9.0,9.0,73,0.00,,,0.00,Wunderground v.1.15,2013-09-16 15:54:00,
2013-09-16 10:56:00,59.3,51.4,30.35,East,92,8.0,9.0,75,0.00,,,0.00,Wunderground v.1.15,2013-09-16 15:56:00,
2013-09-16 10:58:00,59.7,51.0,30.35,NE,49,8.0,9.0,73,0.00,,,0.00,Wunderground v.1.15,2013-09-16 15:58:00,
2013-09-16 11:00:00,59.9,51.6,30.35,NNE,23,8.0,8.0,74,0.00,,,0.00,Wunderground v.1.15,2013-09-16 16:00:00,
2013-09-16 11:04:00,60.1,51.4,30.35,NE,45,8.0,10.0,73,0.00,,,0.00,Wunderground v.1.15,2013-09-16 16:04:00,
2013-09-16 11:06:00,60.1,51.4,30.36,ENE,63,8.0,10.0,73,0.00,,,0.00,Wunderground v.1.15,2013-09-16 16:06:00,
2013-09-16 11:08:00,60.2,51.5,30.35,NE,49,8.0,10.0,73,0.00,,,0.00,Wunderground v.1.15,2013-09-16 16:08:00,
2013-09-16 11:12:00,60.6,51.9,30.35,North,9,8.0,8.0,73,0.00,,,0.00,Wunderground v.1.15,2013-09-16 16:12:00,
2013-09-16 11:14:00,60.8,51.7,30.35,NE,44,8.0,9.0,72,0.00,,,0.00,Wunderground v.1.15,2013-09-16 16:14:00,
2013-09-16 11:18:00,60.8,51.7,30.35,NNE,26,8.0,11.0,72,0.00,,,0.00,Wunderground v.1.15,2013-09-16 16:18:00,
2013-09-16 11:20:00,60.7,51.6,30.35,ENE,58,9.0,9.0,72,0.00,,,0.00,Wunderground v.1.15,2013-09-16 16:20:00,
2013-09-16 11:22:00,60.7,51.6,30.35,ENE,70,9.0,9.0,72,0.00,,,0.00,Wunderground v.1.15,2013-09-16 16:22:00,
2013-09-16 11:26:00,60.4,51.0,30.35,SE,131,8.0,9.0,71,0.00,,,0.00,Wunderground v.1.15,2013-09-16 16:26:00,
2013-09-16 11:28:00,60.5,51.4,30.35,North,6,8.0,12.0,72,0.00,,,0.00,Wunderground v.1.15,2013-09-16 16:28:00,
2013-09-16 11:30:00,60.6,51.5,30.35,North,8,8.0,8.0,72,0.00,,,0.00,Wunderground v.1.15,2013-09-16 16:30:00,
2013-09-16 11:32:00,60.9,51.8,30.35,NE,39,8.0,8.0,72,0.00,,,0.00,Wunderground v.1.15,2013-09-16 16:32:00,
2013-09-16 11:34:00,61.3,52.2,30.35,NE,39,9.0,9.0,72,0.00,,,0.00,Wunderground v.1.15,2013-09-16 16:34:00,
2013-09-16 11:40:00,61.6,51.3,30.35,NE,54,9.0,9.0,69,0.00,,,0.00,Wunderground v.1.15,2013-09-16 16:40:00,
2013-09-16 11:44:00,61.6,51.3,30.35,ENE,61,8.0,9.0,69,0.00,,,0.00,Wunderground v.1.15,2013-09-16 16:44:00,
2013-09-16 11:50:00,61.9,51.6,30.35,NE,43,8.0,8.0,69,0.00,,,0.00,Wunderground v.1.15,2013-09-16 16:50:00,
2013-09-16 11:52:00,61.9,51.2,30.35,ENE,58,8.0,9.0,68,0.00,,,0.00,Wunderground v.1.15,2013-09-16 16:52:00,
2013-09-16 11:54:00,61.9,50.8,30.35,East,84,9.0,9.0,67,0.00,,,0.00,Wunderground v.1.15,2013-09-16 16:54:00,
2013-09-16 11:56:00,62.1,51.8,30.35,ENE,70,9.0,9.0,69,0.00,,,0.00,Wunderground v.1.15,2013-09-16 16:56:00,
2013-09-16 11:58:00,62.1,50.6,30.35,East,98,8.0,10.0,66,0.00,,,0.00,Wunderground v.1.15,2013-09-16 16:58:00,
2013-09-16 12:00:00,62.2,51.1,30.35,ENE,72,8.0,10.0,67,0.00,,,0.00,Wunderground v.1.15,2013-09-16 17:00:00,
2013-09-16 12:04:00,62.6,51.5,30.35,ENE,67,8.0,10.0,67,0.00,,,0.00,Wunderground v.1.15,2013-09-16 17:04:00,
2013-09-16 12:08:00,62.7,50.8,30.35,ENE,74,8.0,10.0,65,0.00,,,0.00,Wunderground v.1.15,2013-09-16 17:08:00,
2013-09-16 12:12:00,62.8,50.4,30.35,NE,52,8.0,13.0,64,0.00,,,0.00,Wunderground v.1.15,2013-09-16 17:12:00,
2013-09-16 12:16:00,62.7,49.9,30.35,NNE,29,8.0,13.0,63,0.00,,,0.00,Wunderground v.1.15,2013-09-16 17:16:00,
2013-09-16 12:18:00,62.8,49.6,30.35,NE,41,8.0,13.0,62,0.00,,,0.00,Wunderground v.1.15,2013-09-16 17:18:00,
2013-09-16 12:22:00,63.3,51.7,30.35,ENE,73,8.0,10.0,66,0.00,,,0.00,Wunderground v.1.15,2013-09-16 17:22:00,
2013-09-16 12:24:00,63.5,51.5,30.35,NE,54,7.0,10.0,65,0.00,,,0.00,Wunderground v.1.15,2013-09-16 17:24:00,
2013-09-16 12:26:00,63.8,51.4,30.35,NE,44,7.0,10.0,64,0.00,,,0.00,Wunderground v.1.15,2013-09-16 17:26:00,
2013-09-16 12:28:00,63.5,50.7,30.35,ENE,61,7.0,10.0,63,0.00,,,0.00,Wunderground v.1.15,2013-09-16 17:28:00,
2013-09-16 12:30:00,63.5,51.1,30.35,NE,49,7.0,9.0,64,0.00,,,0.00,Wunderground v.1.15,2013-09-16 17:30:00,
2013-09-16 12:32:00,63.5,51.1,30.35,ENE,60,7.0,9.0,64,0.00,,,0.00,Wunderground v.1.15,2013-09-16 17:32:00,
2013-09-16 12:34:00,63.4,50.1,30.35,ESE,107,7.0,9.0,62,0.00,,,0.00,Wunderground v.1.15,2013-09-16 17:34:00,
2013-09-16 12:36:00,63.5,50.2,30.35,ESE,120,7.0,9.0,62,0.00,,,0.00,Wunderground v.1.15,2013-09-16 17:36:00,
2013-09-16 12:40:00,63.8,51.0,30.35,NE,50,7.0,8.0,63,0.00,,,0.00,Wunderground v.1.15,2013-09-16 17:40:00,
2013-09-16 12:42:00,63.7,50.9,30.35,NE,34,6.0,8.0,63,0.00,,,0.00,Wunderground v.1.15,2013-09-16 17:42:00,
2013-09-16 12:44:00,63.7,50.4,30.35,NNE,23,6.0,8.0,62,0.00,,,0.00,Wunderground v.1.15,2013-09-16 17:44:00,
2013-09-16 12:46:00,63.6,49.5,30.35,North,9,7.0,8.0,60,0.00,,,0.00,Wunderground v.1.15,2013-09-16 17:46:00,
2013-09-16 12:48:00,63.7,50.9,30.35,NNE,26,8.0,8.0,63,0.00,,,0.00,Wunderground v.1.15,2013-09-16 17:48:00,
2013-09-16 12:52:00,63.7,49.5,30.34,NNE,27,8.0,8.0,60,0.00,,,0.00,Wunderground v.1.15,2013-09-16 17:52:00,
2013-09-16 12:54:00,63.9,49.3,30.34,NNE,15,8.0,8.0,59,0.00,,,0.00,Wunderground v.1.15,2013-09-16 17:54:00,
2013-09-16 12:56:00,64.3,50.1,30.34,NE,48,8.0,8.0,60,0.00,,,0.00,Wunderground v.1.15,2013-09-16 17:56:00,
2013-09-16 12:58:00,64.6,50.4,30.34,NNE,30,8.0,9.0,60,0.00,,,0.00,Wunderground v.1.15,2013-09-16 17:58:00,
2013-09-16 13:02:00,64.0,48.5,30.34,NNE,27,9.0,10.0,57,0.00,,,0.00,Wunderground v.1.15,2013-09-16 18:02:00,
2013-09-16 13:04:00,64.1,50.4,30.34,NNE,13,8.0,11.0,61,0.00,,,0.00,Wunderground v.1.15,2013-09-16 18:04:00,
2013-09-16 13:06:00,64.3,51.0,30.34,NNW,330,8.0,11.0,62,0.00,,,0.00,Wunderground v.1.15,2013-09-16 18:06:00,
2013-09-16 13:10:00,64.5,50.3,30.34,NNE,30,8.0,11.0,60,0.00,,,0.00,Wunderground v.1.15,2013-09-16 18:10:00,
2013-09-16 13:12:00,64.6,51.3,30.34,East,82,7.0,11.0,62,0.00,,,0.00,Wunderground v.1.15,2013-09-16 18:12:00,
2013-09-16 13:14:00,64.7,50.5,30.34,NE,37,8.0,11.0,60,0.00,,,0.00,Wunderground v.1.15,2013-09-16 18:14:00,
2013-09-16 13:18:00,65.0,49.4,30.34,NNE,19,8.0,11.0,57,0.00,,,0.00,Wunderground v.1.15,2013-09-16 18:18:00,
2013-09-16 13:20:00,64.9,49.8,30.34,NNE,16,8.0,8.0,58,0.00,,,0.00,Wunderground v.1.15,2013-09-16 18:20:00,
2013-09-16 13:22:00,65.0,50.3,30.34,NE,39,9.0,12.0,59,0.00,,,0.00,Wunderground v.1.15,2013-09-16 18:22:00,
2013-09-16 13:24:00,65.0,50.8,30.34,NE,37,9.0,12.0,60,0.00,,,0.00,Wunderground v.1.15,2013-09-16 18:24:00,
2013-09-16 13:26:00,65.1,50.0,30.33,North,9,9.0,12.0,58,0.00,,,0.00,Wunderground v.1.15,2013-09-16 18:26:00,
2013-09-16 13:30:00,65.7,51.0,30.33,NNE,31,8.0,10.0,59,0.00,,,0.00,Wunderground v.1.15,2013-09-16 18:30:00,
2013-09-16 13:32:00,65.7,49.6,30.33,NE,34,7.0,10.0,56,0.00,,,0.00,Wunderground v.1.15,2013-09-16 18:32:00,
2013-09-16 13:34:00,65.4,48.3,30.33,East,97,7.0,10.0,54,0.00,,,0.00,Wunderground v.1.15,2013-09-16 18:34:00,
2013-09-16 13:36:00,65.3,49.7,30.33,NNE,23,7.0,10.0,57,0.00,,,0.00,Wunderground v.1.15,2013-09-16 18:36:00,
2013-09-16 13:38:00,65.2,47.6,30.33,ENE,75,7.0,10.0,53,0.00,,,0.00,Wunderground v.1.15,2013-09-16 18:38:00,
2013-09-16 13:40:00,65.4,49.3,30.33,NNE,18,8.0,11.0,56,0.00,,,0.00,Wunderground v.1.15,2013-09-16 18:40:00,
2013-09-16 13:42:00,65.4,49.3,30.33,NNE,30,8.0,11.0,56,0.00,,,0.00,Wunderground v.1.15,2013-09-16 18:42:00,
2013-09-16 13:46:00,65.5,48.4,30.33,ENE,75,8.0,11.0,54,0.00,,,0.00,Wunderground v.1.15,2013-09-16 18:46:00,
2013-09-16 13:50:00,65.8,49.7,30.33,NE,34,8.0,9.0,56,0.00,,,0.00,Wunderground v.1.15,2013-09-16 18:50:00,
2013-09-16 13:52:00,65.9,49.3,30.32,NE,46,8.0,9.0,55,0.00,,,0.00,Wunderground v.1.15,2013-09-16 18:52:00,
2013-09-16 13:56:00,65.8,49.2,30.33,NE,50,9.0,14.0,55,0.00,,,0.00,Wunderground v.1.15,2013-09-16 18:56:00,
2013-09-16 13:58:00,65.8,49.2,30.33,NNE,20,9.0,14.0,55,0.00,,,0.00,Wunderground v.1.15,2013-09-16 18:58:00,
2013-09-16 14:02:00,65.9,49.8,30.32,North,9,9.0,9.0,56,0.00,,,0.00,Wunderground v.1.15,2013-09-16 19:02:00,
2013-09-16 14:04:00,65.9,49.8,30.32,NNE,29,8.0,9.0,56,0.00,,,0.00,Wunderground v.1.15,2013-09-16 19:04:00,
2013-09-16 14:06:00,66.1,50.4,30.32,NE,47,7.0,9.0,57,0.00,,,0.00,Wunderground v.1.15,2013-09-16 19:06:00,
2013-09-16 14:10:00,66.5,49.8,30.32,NE,43,7.0,7.0,55,0.00,,,0.00,Wunderground v.1.15,2013-09-16 19:10:00,
2013-09-16 14:12:00,66.7,50.5,30.32,ENE,57,8.0,8.0,56,0.00,,,0.00,Wunderground v.1.15,2013-09-16 19:12:00,
2013-09-16 14:14:00,66.8,50.1,30.32,NE,54,8.0,8.0,55,0.00,,,0.00,Wunderground v.1.15,2013-09-16 19:14:00,
2013-09-16 14:18:00,66.6,50.4,30.32,ENE,63,7.0,9.0,56,0.00,,,0.00,Wunderground v.1.15,2013-09-16 19:18:00,
2013-09-16 14:20:00,66.9,50.2,30.32,North,4,7.0,9.0,55,0.00,,,0.00,Wunderground v.1.15,2013-09-16 19:20:00,
2013-09-16 14:24:00,66.4,48.7,30.32,North,1,8.0,9.0,53,0.00,,,0.00,Wunderground v.1.15,2013-09-16 19:24:00,
2013-09-16 14:28:00,66.1,49.9,30.31,NNE,29,8.0,9.0,56,0.00,,,0.00,Wunderground v.1.15,2013-09-16 19:28:00,
2013-09-16 14:30:00,66.1,49.9,30.31,NNE,24,8.0,8.0,56,0.00,,,0.00,Wunderground v.1.15,2013-09-16 19:30:00,
2013-09-16 14:32:00,66.2,49.6,30.31,NE,47,8.0,8.0,55,0.00,,,0.00,Wunderground v.1.15,2013-09-16 19:32:00,
2013-09-16 14:36:00,66.3,49.2,30.31,East,84,8.0,13.0,54,0.00,,,0.00,Wunderground v.1.15,2013-09-16 19:36:00,
2013-09-16 14:39:00,66.4,49.7,30.31,East,82,9.0,13.0,55,0.00,,,0.00,Wunderground v.1.15,2013-09-16 19:39:00,
2013-09-16 14:40:00,66.3,49.6,30.31,East,94,10.0,10.0,55,0.00,,,0.00,Wunderground v.1.15,2013-09-16 19:40:00,
2013-09-16 14:44:00,66.6,49.4,30.31,NNE,25,8.0,12.0,54,0.00,,,0.00,Wunderground v.1.15,2013-09-16 19:44:00,
2013-09-16 14:46:00,66.7,49.5,30.31,NNE,26,8.0,12.0,54,0.00,,,0.00,Wunderground v.1.15,2013-09-16 19:46:00,
2013-09-16 14:50:00,66.7,49.5,30.31,NE,51,6.0,6.0,54,0.00,,,0.00,Wunderground v.1.15,2013-09-16 19:50:00,
2013-09-16 14:52:00,66.8,50.1,30.31,ESE,122,7.0,7.0,55,0.00,,,0.00,Wunderground v.1.15,2013-09-16 19:52:00,
2013-09-16 14:54:00,67.1,51.4,30.31,SE,128,6.0,8.0,57,0.00,,,0.00,Wunderground v.1.15,2013-09-16 19:54:00,
2013-09-16 14:56:00,67.5,50.8,30.31,NNE,26,5.0,11.0,55,0.00,,,0.00,Wunderground v.1.15,2013-09-16 19:56:00,
2013-09-16 15:00:00,67.4,49.7,30.31,ENE,62,6.0,9.0,53,0.00,,,0.00,Wunderground v.1.15,2013-09-16 20:00:00,
2013-09-16 15:02:00,67.3,49.6,30.31,ENE,63,7.0,10.0,53,0.00,,,0.00,Wunderground v.1.15,2013-09-16 20:02:00,
2013-09-16 15:06:00,67.1,49.4,30.31,NNE,16,9.0,10.0,53,0.00,,,0.00,Wunderground v.1.15,2013-09-16 20:06:00,
2013-09-16 15:08:00,67.2,49.5,30.31,NNE,22,8.0,10.0,53,0.00,,,0.00,Wunderground v.1.15,2013-09-16 20:08:00,
2013-09-16 15:12:00,67.3,50.6,30.30,ENE,58,7.0,10.0,55,0.00,,,0.00,Wunderground v.1.15,2013-09-16 20:12:00,
2013-09-16 15:14:00,67.3,50.6,30.30,NNE,23,6.0,10.0,55,0.00,,,0.00,Wunderground v.1.15,2013-09-16 20:14:00,
2013-09-16 15:16:00,67.7,50.5,30.30,NE,50,6.0,10.0,54,0.00,,,0.00,Wunderground v.1.15,2013-09-16 20:16:00,
2013-09-16 15:20:00,67.7,49.4,30.30,NE,54,7.0,8.0,52,0.00,,,0.00,Wunderground v.1.15,2013-09-16 20:20:00,
2013-09-16 15:24:00,67.4,50.2,30.30,NE,56,7.0,12.0,54,0.00,,,0.00,Wunderground v.1.15,2013-09-16 20:24:00,
2013-09-16 15:26:00,67.3,49.6,30.30,East,101,8.0,12.0,53,0.00,,,0.00,Wunderground v.1.15,2013-09-16 20:26:00,
2013-09-16 15:28:00,67.1,49.4,30.30,NNE,33,8.0,12.0,53,0.00,,,0.00,Wunderground v.1.15,2013-09-16 20:28:00,
2013-09-16 15:30:00,67.3,50.6,30.30,NNE,12,7.0,7.0,55,0.00,,,0.00,Wunderground v.1.15,2013-09-16 20:30:00,
2013-09-16 15:34:00,68.0,49.2,30.29,North,350,7.0,8.0,51,0.00,,,0.00,Wunderground v.1.15,2013-09-16 20:34:00,
2013-09-16 15:36:00,67.9,49.6,30.30,ENE,70,7.0,10.0,52,0.00,,,0.00,Wunderground v.1.15,2013-09-16 20:36:00,
2013-09-16 15:38:00,67.8,49.5,30.29,NE,53,7.0,10.0,52,0.00,,,0.00,Wunderground v.1.15,2013-09-16 20:38:00,
2013-09-16 15:40:00,67.8,49.5,30.29,East,96,8.0,8.0,52,0.00,,,0.00,Wunderground v.1.15,2013-09-16 20:40:00,
2013-09-16 15:42:00,67.8,50.0,30.29,ENE,61,8.0,8.0,53,0.00,,,0.00,Wunderground v.1.15,2013-09-16 20:42:00,
2013-09-16 15:44:00,67.8,50.0,30.29,NNE,18,8.0,8.0,53,0.00,,,0.00,Wunderground v.1.15,2013-09-16 20:44:00,
2013-09-16 15:46:00,67.8,49.5,30.29,NE,50,8.0,8.0,52,0.00,,,0.00,Wunderground v.1.15,2013-09-16 20:46:00,
2013-09-16 15:48:00,67.9,48.6,30.29,ENE,61,7.0,8.0,50,0.00,,,0.00,Wunderground v.1.15,2013-09-16 20:48:00,
2013-09-16 15:52:00,67.7,48.9,30.29,NE,49,8.0,11.0,51,0.00,,,0.00,Wunderground v.1.15,2013-09-16 20:52:00,
2013-09-16 15:54:00,67.6,49.3,30.29,NE,49,8.0,11.0,52,0.00,,,0.00,Wunderground v.1.15,2013-09-16 20:54:00,
2013-09-16 15:56:00,67.5,48.7,30.29,NNE,25,9.0,11.0,51,0.00,,,0.00,Wunderground v.1.15,2013-09-16 20:56:00,
2013-09-16 15:58:00,67.6,49.9,30.29,NNE,32,9.0,11.0,53,0.00,,,0.00,Wunderground v.1.15,2013-09-16 20:58:00,
2013-09-16 16:00:00,67.8,50.0,30.29,NE,34,8.0,8.0,53,0.00,,,0.00,Wunderground v.1.15,2013-09-16 21:00:00,
2013-09-16 16:06:00,67.9,50.1,30.29,East,89,8.0,10.0,53,0.00,,,0.00,Wunderground v.1.15,2013-09-16 21:06:00,
2013-09-16 16:10:00,67.9,49.6,30.28,NNE,26,8.0,13.0,52,0.00,,,0.00,Wunderground v.1.15,2013-09-16 21:10:00,
2013-09-16 16:14:00,68.1,48.2,30.29,East,80,8.0,13.0,49,0.00,,,0.00,Wunderground v.1.15,2013-09-16 21:14:00,
2013-09-16 16:16:00,68.1,48.8,30.29,NE,56,8.0,13.0,50,0.00,,,0.00,Wunderground v.1.15,2013-09-16 21:16:00,
2013-09-16 16:18:00,68.1,48.8,30.29,ENE,71,8.0,13.0,50,0.00,,,0.00,Wunderground v.1.15,2013-09-16 21:18:00,
2013-09-16 16:20:00,68.1,47.7,30.29,ENE,64,9.0,9.0,48,0.00,,,0.00,Wunderground v.1.15,2013-09-16 21:20:00,
2013-09-16 16:22:00,67.8,49.0,30.29,ENE,60,9.0,10.0,51,0.00,,,0.00,Wunderground v.1.15,2013-09-16 21:22:00,
2013-09-16 16:28:00,68.0,49.7,30.29,NE,50,8.0,10.0,52,0.00,,,0.00,Wunderground v.1.15,2013-09-16 21:28:00,
2013-09-16 16:30:00,68.0,49.2,30.29,NE,53,8.0,9.0,51,0.00,,,0.00,Wunderground v.1.15,2013-09-16 21:30:00,
2013-09-16 16:32:00,67.8,48.5,30.29,ENE,74,8.0,11.0,50,0.00,,,0.00,Wunderground v.1.15,2013-09-16 21:32:00,
2013-09-16 16:34:00,67.8,48.5,30.29,ENE,62,8.0,11.0,50,0.00,,,0.00,Wunderground v.1.15,2013-09-16 21:34:00,
2013-09-16 16:36:00,67.9,49.1,30.28,ESE,116,8.0,11.0,51,0.00,,,0.00,Wunderground v.1.15,2013-09-16 21:36:00,
2013-09-16 16:38:00,68.1,48.8,30.29,NE,46,8.0,11.0,50,0.00,,,0.00,Wunderground v.1.15,2013-09-16 21:38:00,
2013-09-16 16:40:00,68.0,48.1,30.28,NE,54,9.0,9.0,49,0.00,,,0.00,Wunderground v.1.15,2013-09-16 21:40:00,
2013-09-16 16:46:00,68.3,49.5,30.28,ENE,78,8.0,9.0,51,0.00,,,0.00,Wunderground v.1.15,2013-09-16 21:46:00,
2013-09-16 16:48:00,68.2,48.8,30.28,NE,48,7.0,11.0,50,0.00,,,0.00,Wunderground v.1.15,2013-09-16 21:48:00,
2013-09-16 16:50:00,68.4,50.1,30.28,NNE,23,6.0,10.0,52,0.00,,,0.00,Wunderground v.1.15,2013-09-16 21:50:00,
2013-09-16 16:54:00,68.1,48.8,30.28,ENE,57,7.0,10.0,50,0.00,,,0.00,Wunderground v.1.15,2013-09-16 21:54:00,
2013-09-16 16:56:00,67.9,48.6,30.28,NE,56,8.0,12.0,50,0.00,,,0.00,Wunderground v.1.15,2013-09-16 21:56:00,
2013-09-16 16:58:00,67.8,48.5,30.28,NE,34,9.0,12.0,50,0.00,,,0.00,Wunderground v.1.15,2013-09-16 21:58:00,
2013-09-16 17:00:00,67.9,49.6,30.28,NE,47,9.0,9.0,52,0.00,,,0.00,Wunderground v.1.15,2013-09-16 22:00:00,
2013-09-16 17:04:00,67.9,49.1,30.28,NE,50,9.0,10.0,51,0.00,,,0.00,Wunderground v.1.15,2013-09-16 22:04:00,
2013-09-16 17:06:00,67.8,48.5,30.28,ENE,65,8.0,10.0,50,0.00,,,0.00,Wunderground v.1.15,2013-09-16 22:06:00,
2013-09-16 17:08:00,67.9,48.6,30.28,ENE,67,7.0,10.0,50,0.00,,,0.00,Wunderground v.1.15,2013-09-16 22:08:00,
2013-09-16 17:10:00,67.8,49.0,30.28,ENE,61,7.0,9.0,51,0.00,,,0.00,Wunderground v.1.15,2013-09-16 22:10:00,
2013-09-16 17:12:00,67.7,48.9,30.27,ENE,63,7.0,10.0,51,0.00,,,0.00,Wunderground v.1.15,2013-09-16 22:12:00,
2013-09-16 17:14:00,67.6,48.8,30.27,NNE,32,8.0,10.0,51,0.00,,,0.00,Wunderground v.1.15,2013-09-16 22:14:00,
2013-09-16 17:16:00,67.7,48.9,30.27,ENE,65,8.0,10.0,51,0.00,,,0.00,Wunderground v.1.15,2013-09-16 22:16:00,
2013-09-16 17:22:00,67.6,49.3,30.28,NNE,27,9.0,10.0,52,0.00,,,0.00,Wunderground v.1.15,2013-09-16 22:22:00,
2013-09-16 17:24:00,67.7,48.9,30.27,NE,51,9.0,10.0,51,0.00,,,0.00,Wunderground v.1.15,2013-09-16 22:24:00,
2013-09-16 17:28:00,67.5,48.7,30.27,NNE,30,9.0,13.0,51,0.00,,,0.00,Wunderground v.1.15,2013-09-16 22:28:00,
2013-09-16 17:30:00,67.5,49.3,30.27,NE,44,9.0,9.0,52,0.00,,,0.00,Wunderground v.1.15,2013-09-16 22:30:00,
2013-09-16 17:32:00,67.5,49.3,30.27,NNE,30,8.0,9.0,52,0.00,,,0.00,Wunderground v.1.15,2013-09-16 22:32:00,
2013-09-16 17:36:00,67.4,49.2,30.27,ENE,72,8.0,11.0,52,0.00,,,0.00,Wunderground v.1.15,2013-09-16 22:36:00,
2013-09-16 17:38:00,67.3,49.1,30.27,NNE,30,8.0,11.0,52,0.00,,,0.00,Wunderground v.1.15,2013-09-16 22:38:00,
2013-09-16 17:40:00,67.3,49.1,30.27,NE,50,7.0,7.0,52,0.00,,,0.00,Wunderground v.1.15,2013-09-16 22:40:00,
2013-09-16 17:42:00,67.3,49.6,30.27,ENE,61,7.0,8.0,53,0.00,,,0.00,Wunderground v.1.15,2013-09-16 22:42:00,
2013-09-16 17:44:00,67.3,49.6,30.27,NNE,15,8.0,8.0,53,0.00,,,0.00,Wunderground v.1.15,2013-09-16 22:44:00,
2013-09-16 17:48:00,67.1,49.4,30.27,NE,40,7.0,8.0,53,0.00,,,0.00,Wunderground v.1.15,2013-09-16 22:48:00,
2013-09-16 17:50:00,67.1,49.9,30.27,NNE,12,7.0,7.0,54,0.00,,,0.00,Wunderground v.1.15,2013-09-16 22:50:00,
2013-09-16 17:54:00,67.0,49.8,30.28,NNE,26,7.0,9.0,54,0.00,,,0.00,Wunderground v.1.15,2013-09-16 22:54:00,
2013-09-16 17:56:00,67.0,50.8,30.28,NNE,18,7.0,9.0,56,0.00,,,0.00,Wunderground v.1.15,2013-09-16 22:56:00,
2013-09-16 17:58:00,66.9,50.2,30.28,NNE,16,7.0,9.0,55,0.00,,,0.00,Wunderground v.1.15,2013-09-16 22:58:00,
2013-09-16 18:00:00,66.9,50.2,30.28,NNE,15,7.0,7.0,55,0.00,,,0.00,Wunderground v.1.15,2013-09-16 23:00:00,
2013-09-16 18:02:00,66.8,50.1,30.28,ENE,70,7.0,8.0,55,0.00,,,0.00,Wunderground v.1.15,2013-09-16 23:02:00,
2013-09-16 18:06:00,66.7,50.0,30.28,NE,49,7.0,8.0,55,0.00,,,0.00,Wunderground v.1.15,2013-09-16 23:06:00,
2013-09-16 18:08:00,66.6,50.4,30.28,NE,37,7.0,8.0,56,0.00,,,0.00,Wunderground v.1.15,2013-09-16 23:08:00,
2013-09-16 18:12:00,66.5,50.3,30.28,NE,53,7.0,8.0,56,0.00,,,0.00,Wunderground v.1.15,2013-09-16 23:12:00,
2013-09-16 18:14:00,66.4,50.2,30.28,NE,52,7.0,9.0,56,0.00,,,0.00,Wunderground v.1.15,2013-09-16 23:14:00,
2013-09-16 18:16:00,66.3,50.6,30.28,NE,47,7.0,9.0,57,0.00,,,0.00,Wunderground v.1.15,2013-09-16 23:16:00,
2013-09-16 18:18:00,66.1,50.4,30.28,NNE,32,7.0,9.0,57,0.00,,,0.00,Wunderground v.1.15,2013-09-16 23:18:00,
2013-09-16 18:20:00,66.1,50.4,30.28,NE,43,6.0,6.0,57,0.00,,,0.00,Wunderground v.1.15,2013-09-16 23:20:00,
2013-09-16 18:22:00,66.0,50.3,30.28,ENE,61,7.0,7.0,57,0.00,,,0.00,Wunderground v.1.15,2013-09-16 23:22:00,
2013-09-16 18:26:00,65.8,50.6,30.28,East,87,6.0,8.0,58,0.00,,,0.00,Wunderground v.1.15,2013-09-16 23:26:00,
2013-09-16 18:28:00,65.6,50.9,30.28,NE,54,6.0,8.0,59,0.00,,,0.00,Wunderground v.1.15,2013-09-16 23:28:00,
2013-09-16 18:30:00,65.4,50.7,30.28,NE,47,5.0,8.0,59,0.00,,,0.00,Wunderground v.1.15,2013-09-16 23:30:00,
2013-09-16 18:32:00,65.2,51.0,30.28,NE,47,5.0,8.0,60,0.00,,,0.00,Wunderground v.1.15,2013-09-16 23:32:00,
2013-09-16 18:34:00,65.0,50.8,30.28,NNE,26,5.0,8.0,60,0.00,,,0.00,Wunderground v.1.15,2013-09-16 23:34:00,
2013-09-16 18:36:00,64.8,50.6,30.28,ENE,57,5.0,8.0,60,0.00,,,0.00,Wunderground v.1.15,2013-09-16 23:36:00,
2013-09-16 18:40:00,64.5,50.7,30.28,ENE,59,5.0,8.0,61,0.00,,,0.00,Wunderground v.1.15,2013-09-16 23:40:00,
2013-09-16 18:42:00,64.4,50.7,30.28,NE,41,5.0,8.0,61,0.00,,,0.00,Wunderground v.1.15,2013-09-16 23:42:00,
2013-09-16 18:44:00,64.2,50.9,30.28,NE,56,5.0,8.0,62,0.00,,,0.00,Wunderground v.1.15,2013-09-16 23:44:00,
2013-09-16 18:46:00,63.9,50.6,30.28,NE,47,5.0,8.0,62,0.00,,,0.00,Wunderground v.1.15,2013-09-16 23:46:00,
2013-09-16 18:50:00,63.5,50.7,30.28,NE,56,4.0,8.0,63,0.00,,,0.00,Wunderground v.1.15,2013-09-16 23:50:00,
2013-09-16 18:54:00,62.8,50.9,30.27,NE,37,4.0,8.0,65,0.00,,,0.00,Wunderground v.1.15,2013-09-16 23:54:00,
2013-09-16 18:58:00,62.2,50.7,30.27,NE,43,4.0,8.0,66,0.00,,,0.00,Wunderground v.1.15,2013-09-16 23:58:00,
2013-09-16 19:00:00,62.1,50.6,30.27,NE,38,4.0,4.0,66,0.00,,,0.00,Wunderground v.1.15,2013-09-17 00:00:00,
2013-09-16 19:04:00,61.6,50.5,30.28,NE,36,4.0,8.0,67,0.00,,,0.00,Wunderground v.1.15,2013-09-17 00:04:00,
2013-09-16 19:06:00,61.4,50.7,30.28,NE,43,4.0,8.0,68,0.00,,,0.00,Wunderground v.1.15,2013-09-17 00:06:00,
2013-09-16 19:10:00,61.0,50.8,30.28,NE,51,3.0,8.0,69,0.00,,,0.00,Wunderground v.1.15,2013-09-17 00:10:00,
2013-09-16 19:12:00,60.8,50.6,30.28,NE,52,3.0,8.0,69,0.00,,,0.00,Wunderground v.1.15,2013-09-17 00:12:00,
2013-09-16 19:14:00,60.5,50.7,30.28,NE,41,3.0,8.0,70,0.00,,,0.00,Wunderground v.1.15,2013-09-17 00:14:00,
2013-09-16 19:18:00,60.1,50.7,30.28,NE,55,3.0,8.0,71,0.00,,,0.00,Wunderground v.1.15,2013-09-17 00:18:00,
2013-09-16 19:20:00,60.0,50.9,30.28,NE,52,4.0,8.0,72,0.00,,,0.00,Wunderground v.1.15,2013-09-17 00:20:00,
2013-09-16 19:24:00,59.7,50.7,30.28,NE,45,4.0,8.0,72,0.00,,,0.00,Wunderground v.1.15,2013-09-17 00:24:00,
2013-09-16 19:26:00,59.5,50.8,30.28,NE,51,5.0,8.0,73,0.00,,,0.00,Wunderground v.1.15,2013-09-17 00:26:00,
2013-09-16 19:30:00,59.2,50.9,30.28,NE,47,5.0,5.0,74,0.00,,,0.00,Wunderground v.1.15,2013-09-17 00:30:00,
2013-09-16 19:32:00,59.1,50.8,30.28,NE,56,5.0,8.0,74,0.00,,,0.00,Wunderground v.1.15,2013-09-17 00:32:00,
2013-09-16 19:34:00,59.1,50.8,30.28,NE,50,5.0,8.0,74,0.00,,,0.00,Wunderground v.1.15,2013-09-17 00:34:00,
2013-09-16 19:36:00,59.1,50.8,30.28,NE,47,5.0,8.0,74,0.00,,,0.00,Wunderground v.1.15,2013-09-17 00:36:00,
2013-09-16 19:38:00,59.0,50.7,30.28,NNE,33,5.0,8.0,74,0.00,,,0.00,Wunderground v.1.15,2013-09-17 00:38:00,
2013-09-16 19:40:00,58.9,50.6,30.28,ENE,60,5.0,8.0,74,0.00,,,0.00,Wunderground v.1.15,2013-09-17 00:40:00,
2013-09-16 19:44:00,58.6,50.7,30.28,ENE,58,5.0,8.0,75,0.00,,,0.00,Wunderground v.1.15,2013-09-17 00:44:00,
2013-09-16 19:46:00,58.4,50.5,30.28,NE,37,5.0,8.0,75,0.00,,,0.00,Wunderground v.1.15,2013-09-17 00:46:00,
2013-09-16 19:48:00,58.3,50.4,30.28,NE,42,5.0,8.0,75,0.00,,,0.00,Wunderground v.1.15,2013-09-17 00:48:00,
2013-09-16 19:50:00,58.1,50.6,30.28,NE,43,5.0,5.0,76,0.00,,,0.00,Wunderground v.1.15,2013-09-17 00:50:00,
2013-09-16 19:54:00,57.8,50.6,30.28,ENE,68,4.0,8.0,77,0.00,,,0.00,Wunderground v.1.15,2013-09-17 00:54:00,
2013-09-16 19:56:00,57.7,50.2,30.29,ENE,63,5.0,8.0,76,0.00,,,0.00,Wunderground v.1.15,2013-09-17 00:56:00,
2013-09-16 19:58:00,57.8,50.3,30.28,ENE,58,5.0,8.0,76,0.00,,,0.00,Wunderground v.1.15,2013-09-17 00:58:00,
2013-09-16 20:00:00,57.8,50.3,30.29,ENE,61,5.0,8.0,76,0.00,,,0.00,Wunderground v.1.15,2013-09-17 01:00:00,
2013-09-16 20:02:00,57.7,50.2,30.28,NE,51,5.0,8.0,76,0.00,,,0.00,Wunderground v.1.15,2013-09-17 01:02:00,
2013-09-16 20:04:00,57.6,50.1,30.29,ENE,65,5.0,8.0,76,0.00,,,0.00,Wunderground v.1.15,2013-09-17 01:04:00,
2013-09-16 20:06:00,57.6,50.4,30.28,NE,46,5.0,8.0,77,0.00,,,0.00,Wunderground v.1.15,2013-09-17 01:06:00,
2013-09-16 20:08:00,57.6,50.4,30.28,ENE,58,6.0,8.0,77,0.00,,,0.00,Wunderground v.1.15,2013-09-17 01:08:00,
2013-09-16 20:10:00,57.6,50.4,30.28,ENE,58,6.0,6.0,77,0.00,,,0.00,Wunderground v.1.15,2013-09-17 01:10:00,
2013-09-16 20:12:00,57.6,50.4,30.28,NE,45,6.0,8.0,77,0.00,,,0.00,Wunderground v.1.15,2013-09-17 01:12:00,
2013-09-16 20:14:00,57.5,50.3,30.28,NE,44,7.0,8.0,77,0.00,,,0.00,Wunderground v.1.15,2013-09-17 01:14:00,
2013-09-16 20:16:00,57.4,50.2,30.28,ENE,58,6.0,8.0,77,0.00,,,0.00,Wunderground v.1.15,2013-09-17 01:16:00,
2013-09-16 20:20:00,57.2,50.1,30.28,NE,52,7.0,8.0,77,0.00,,,0.00,Wunderground v.1.15,2013-09-17 01:20:00,
2013-09-16 20:24:00,57.1,50.0,30.28,NE,45,7.0,8.0,77,0.00,,,0.00,Wunderground v.1.15,2013-09-17 01:24:00,
2013-09-16 20:28:00,57.0,50.2,30.29,NE,56,8.0,8.0,78,0.00,,,0.00,Wunderground v.1.15,2013-09-17 01:28:00,
2013-09-16 20:30:00,57.0,50.2,30.28,ENE,58,8.0,12.0,78,0.00,,,0.00,Wunderground v.1.15,2013-09-17 01:30:00,
2013-09-16 20:34:00,56.9,50.1,30.28,NE,43,8.0,12.0,78,0.00,,,0.00,Wunderground v.1.15,2013-09-17 01:34:00,
2013-09-16 20:36:00,57.0,50.2,30.28,NE,49,9.0,12.0,78,0.00,,,0.00,Wunderground v.1.15,2013-09-17 01:36:00,
2013-09-16 20:38:00,56.9,50.5,30.28,ENE,61,9.0,15.0,79,0.00,,,0.00,Wunderground v.1.15,2013-09-17 01:38:00,
2013-09-16 20:40:00,56.9,50.5,30.28,ENE,63,9.0,10.0,79,0.00,,,0.00,Wunderground v.1.15,2013-09-17 01:40:00,
2013-09-16 20:44:00,56.6,50.2,30.29,ENE,65,9.0,11.0,79,0.00,,,0.00,Wunderground v.1.15,2013-09-17 01:44:00,
2013-09-16 20:48:00,56.3,50.2,30.29,ENE,59,8.0,11.0,80,0.00,,,0.00,Wunderground v.1.15,2013-09-17 01:48:00,
2013-09-16 20:50:00,56.2,50.1,30.29,ENE,75,8.0,8.0,80,0.00,,,0.00,Wunderground v.1.15,2013-09-17 01:50:00,
2013-09-16 20:52:00,56.1,50.0,30.29,ENE,74,8.0,8.0,80,0.00,,,0.00,Wunderground v.1.15,2013-09-17 01:52:00,
2013-09-16 20:54:00,56.0,49.9,30.29,NE,56,8.0,8.0,80,0.00,,,0.00,Wunderground v.1.15,2013-09-17 01:54:00,
2013-09-16 20:56:00,56.0,50.3,30.29,ENE,75,8.0,8.0,81,0.00,,,0.00,Wunderground v.1.15,2013-09-17 01:56:00,
2013-09-16 20:58:00,55.8,50.1,30.29,East,85,8.0,10.0,81,0.00,,,0.00,Wunderground v.1.15,2013-09-17 01:58:00,
2013-09-16 21:00:00,55.8,50.1,30.29,NE,41,8.0,8.0,81,0.00,,,0.00,Wunderground v.1.15,2013-09-17 02:00:00,
2013-09-16 21:04:00,55.6,49.9,30.29,NE,43,9.0,9.0,81,0.00,,,0.00,Wunderground v.1.15,2013-09-17 02:04:00,
2013-09-16 21:06:00,55.6,49.9,30.29,ENE,61,9.0,9.0,81,0.00,,,0.00,Wunderground v.1.15,2013-09-17 02:06:00,
2013-09-16 21:08:00,55.5,49.8,30.29,East,84,9.0,9.0,81,0.00,,,0.00,Wunderground v.1.15,2013-09-17 02:08:00,
2013-09-16 21:10:00,55.5,49.8,30.29,ENE,65,9.0,9.0,81,0.00,,,0.00,Wunderground v.1.15,2013-09-17 02:10:00,
2013-09-16 21:14:00,55.2,49.8,30.29,ENE,71,8.0,9.0,82,0.00,,,0.00,Wunderground v.1.15,2013-09-17 02:14:00,
2013-09-16 21:16:00,55.1,49.7,30.29,ENE,71,8.0,9.0,82,0.00,,,0.00,Wunderground v.1.15,2013-09-17 02:16:00,
2013-09-16 21:18:00,54.9,49.5,30.29,ENE,68,7.0,9.0,82,0.00,,,0.00,Wunderground v.1.15,2013-09-17 02:18:00,
2013-09-16 21:24:00,54.6,49.5,30.29,East,92,8.0,9.0,83,0.00,,,0.00,Wunderground v.1.15,2013-09-17 02:24:00,
2013-09-16 21:26:00,54.5,49.4,30.29,ENE,67,7.0,9.0,83,0.00,,,0.00,Wunderground v.1.15,2013-09-17 02:26:00,
2013-09-16 21:30:00,54.1,49.4,30.29,NE,49,7.0,8.0,84,0.00,,,0.00,Wunderground v.1.15,2013-09-17 02:30:00,
2013-09-16 21:32:00,54.1,49.4,30.29,ENE,65,7.0,9.0,84,0.00,,,0.00,Wunderground v.1.15,2013-09-17 02:32:00,
2013-09-16 21:36:00,53.9,49.2,30.29,East,84,7.0,9.0,84,0.00,,,0.00,Wunderground v.1.15,2013-09-17 02:36:00,
2013-09-16 21:38:00,53.7,49.0,30.29,East,99,7.0,12.0,84,0.00,,,0.00,Wunderground v.1.15,2013-09-17 02:38:00,
2013-09-16 21:40:00,53.7,49.3,30.29,ENE,72,8.0,8.0,85,0.00,,,0.00,Wunderground v.1.15,2013-09-17 02:40:00,
2013-09-16 21:44:00,53.5,49.1,30.29,ENE,60,7.0,8.0,85,0.00,,,0.00,Wunderground v.1.15,2013-09-17 02:44:00,
2013-09-16 21:46:00,53.4,49.0,30.29,ENE,63,7.0,9.0,85,0.00,,,0.00,Wunderground v.1.15,2013-09-17 02:46:00,
2013-09-16 21:50:00,53.2,48.8,30.29,ENE,65,7.0,8.0,85,0.00,,,0.00,Wunderground v.1.15,2013-09-17 02:50:00,
2013-09-16 21:52:00,53.1,49.0,30.29,East,81,7.0,8.0,86,0.00,,,0.00,Wunderground v.1.15,2013-09-17 02:52:00,
2013-09-16 21:54:00,53.1,49.0,30.29,NE,40,7.0,8.0,86,0.00,,,0.00,Wunderground v.1.15,2013-09-17 02:54:00,
2013-09-16 21:56:00,53.0,48.9,30.30,ENE,72,7.0,8.0,86,0.00,,,0.00,Wunderground v.1.15,2013-09-17 02:56:00,
2013-09-16 21:58:00,52.8,48.7,30.30,East,79,7.0,8.0,86,0.00,,,0.00,Wunderground v.1.15,2013-09-17 02:58:00,
2013-09-16 22:00:00,52.8,48.7,30.30,ENE,72,7.0,8.0,86,0.00,,,0.00,Wunderground v.1.15,2013-09-17 03:00:00,
2013-09-16 22:04:00,52.7,48.6,30.30,NE,51,7.0,8.0,86,0.00,,,0.00,Wunderground v.1.15,2013-09-17 03:04:00,
2013-09-16 22:06:00,52.6,48.8,30.30,ENE,67,7.0,9.0,87,0.00,,,0.00,Wunderground v.1.15,2013-09-17 03:06:00,
2013-09-16 22:08:00,52.5,48.7,30.30,ENE,64,7.0,9.0,87,0.00,,,0.00,Wunderground v.1.15,2013-09-17 03:08:00,
2013-09-16 22:10:00,52.4,48.6,30.30,NE,42,7.0,7.0,87,0.00,,,0.00,Wunderground v.1.15,2013-09-17 03:10:00,
2013-09-16 22:12:00,52.2,48.4,30.30,NNE,33,7.0,8.0,87,0.00,,,0.00,Wunderground v.1.15,2013-09-17 03:12:00,
2013-09-16 22:14:00,52.1,48.3,30.30,NE,53,7.0,8.0,87,0.00,,,0.00,Wunderground v.1.15,2013-09-17 03:14:00,
2013-09-16 22:18:00,51.9,48.5,30.30,ENE,77,7.0,8.0,88,0.00,,,0.00,Wunderground v.1.15,2013-09-17 03:18:00,
2013-09-16 22:20:00,51.8,48.4,30.30,NE,56,7.0,9.0,88,0.00,,,0.00,Wunderground v.1.15,2013-09-17 03:20:00,
2013-09-16 22:24:00,51.6,48.2,30.30,ENE,75,7.0,9.0,88,0.00,,,0.00,Wunderground v.1.15,2013-09-17 03:24:00,
2013-09-16 22:26:00,51.6,48.5,30.30,ENE,71,7.0,9.0,89,0.00,,,0.00,Wunderground v.1.15,2013-09-17 03:26:00,
2013-09-16 22:30:00,51.4,48.3,30.30,ENE,58,6.0,8.0,89,0.00,,,0.00,Wunderground v.1.15,2013-09-17 03:30:00,
2013-09-16 22:34:00,51.3,48.2,30.30,NE,53,6.0,8.0,89,0.00,,,0.00,Wunderground v.1.15,2013-09-17 03:34:00,
2013-09-16 22:36:00,51.3,48.2,30.30,ENE,78,6.0,8.0,89,0.00,,,0.00,Wunderground v.1.15,2013-09-17 03:36:00,
2013-09-16 22:38:00,51.2,48.1,30.30,ENE,78,6.0,8.0,89,0.00,,,0.00,Wunderground v.1.15,2013-09-17 03:38:00,
2013-09-16 22:42:00,51.2,48.1,30.30,ENE,68,6.0,7.0,89,0.00,,,0.00,Wunderground v.1.15,2013-09-17 03:42:00,
2013-09-16 22:44:00,51.2,48.1,30.30,ENE,78,6.0,8.0,89,0.00,,,0.00,Wunderground v.1.15,2013-09-17 03:44:00,
2013-09-16 22:46:00,51.2,48.1,30.31,ENE,57,6.0,8.0,89,0.00,,,0.00,Wunderground v.1.15,2013-09-17 03:46:00,
2013-09-16 22:50:00,51.1,48.0,30.31,ENE,70,7.0,8.0,89,0.00,,,0.00,Wunderground v.1.15,2013-09-17 03:50:00,
2013-09-16 22:52:00,51.0,47.9,30.31,East,84,7.0,8.0,89,0.00,,,0.00,Wunderground v.1.15,2013-09-17 03:52:00,
2013-09-16 22:54:00,51.0,47.9,30.31,East,82,7.0,8.0,89,0.00,,,0.00,Wunderground v.1.15,2013-09-17 03:54:00,
2013-09-16 22:58:00,50.8,47.7,30.31,East,85,6.0,8.0,89,0.00,,,0.00,Wunderground v.1.15,2013-09-17 03:58:00,
2013-09-16 23:00:00,50.7,47.6,30.31,East,82,6.0,8.0,89,0.00,,,0.00,Wunderground v.1.15,2013-09-17 04:00:00,
2013-09-16 23:02:00,50.7,47.6,30.31,East,83,6.0,8.0,89,0.00,,,0.00,Wunderground v.1.15,2013-09-17 04:02:00,
2013-09-16 23:04:00,50.6,47.5,30.31,ENE,75,5.0,8.0,89,0.00,,,0.00,Wunderground v.1.15,2013-09-17 04:04:00,
2013-09-16 23:06:00,50.5,47.7,30.31,ENE,71,5.0,8.0,90,0.00,,,0.00,Wunderground v.1.15,2013-09-17 04:06:00,
2013-09-16 23:08:00,50.4,47.6,30.31,ENE,71,5.0,8.0,90,0.00,,,0.00,Wunderground v.1.15,2013-09-17 04:08:00,
2013-09-16 23:12:00,50.2,47.4,30.31,NE,53,5.0,8.0,90,0.00,,,0.00,Wunderground v.1.15,2013-09-17 04:12:00,
2013-09-16 23:14:00,50.1,47.3,30.31,ENE,71,5.0,8.0,90,0.00,,,0.00,Wunderground v.1.15,2013-09-17 04:14:00,
2013-09-16 23:16:00,50.0,47.2,30.31,ENE,63,4.0,8.0,90,0.00,,,0.00,Wunderground v.1.15,2013-09-17 04:16:00,
2013-09-16 23:18:00,49.9,47.4,30.31,ENE,65,4.0,8.0,91,0.00,,,0.00,Wunderground v.1.15,2013-09-17 04:18:00,
2013-09-16 23:20:00,49.8,47.3,30.31,ENE,63,4.0,4.0,91,0.00,,,0.00,Wunderground v.1.15,2013-09-17 04:20:00,
2013-09-16 23:26:00,49.5,47.0,30.31,ENE,74,4.0,8.0,91,0.00,,,0.00,Wunderground v.1.15,2013-09-17 04:26:00,
2013-09-16 23:28:00,49.3,46.8,30.31,ENE,64,3.0,8.0,91,0.00,,,0.00,Wunderground v.1.15,2013-09-17 04:28:00,
2013-09-16 23:32:00,49.1,46.6,30.31,East,86,3.0,8.0,91,0.00,,,0.00,Wunderground v.1.15,2013-09-17 04:32:00,
2013-09-16 23:34:00,49.0,46.8,30.31,ENE,65,3.0,8.0,92,0.00,,,0.00,Wunderground v.1.15,2013-09-17 04:34:00,
2013-09-16 23:36:00,48.9,46.7,30.31,ENE,57,3.0,8.0,92,0.00,,,0.00,Wunderground v.1.15,2013-09-17 04:36:00,
2013-09-16 23:38:00,48.9,46.7,30.31,ENE,78,3.0,8.0,92,0.00,,,0.00,Wunderground v.1.15,2013-09-17 04:38:00,
2013-09-16 23:40:00,48.8,46.6,30.31,NE,41,4.0,4.0,92,0.00,,,0.00,Wunderground v.1.15,2013-09-17 04:40:00,
2013-09-16 23:42:00,48.7,46.5,30.31,East,79,4.0,8.0,92,0.00,,,0.00,Wunderground v.1.15,2013-09-17 04:42:00,
2013-09-16 23:44:00,48.7,46.5,30.31,NE,54,3.0,8.0,92,0.00,,,0.00,Wunderground v.1.15,2013-09-17 04:44:00,
2013-09-16 23:46:00,48.7,46.5,30.31,East,84,3.0,8.0,92,0.00,,,0.00,Wunderground v.1.15,2013-09-17 04:46:00,
2013-09-16 23:50:00,48.5,46.3,30.31,East,79,3.0,8.0,92,0.00,,,0.00,Wunderground v.1.15,2013-09-17 04:50:00,
2013-09-16 23:52:00,48.5,46.3,30.31,ENE,77,3.0,8.0,92,0.00,,,0.00,Wunderground v.1.15,2013-09-17 04:52:00,
2013-09-16 23:54:00,48.4,46.5,30.31,ENE,74,3.0,8.0,93,0.00,,,0.00,Wunderground v.1.15,2013-09-17 04:54:00,
2013-09-16 23:56:00,48.4,46.2,30.31,ENE,63,2.0,8.0,92,0.00,,,0.00,Wunderground v.1.15,2013-09-17 04:56:00,
2013-09-16 23:58:00,48.3,46.4,30.31,ENE,60,2.0,8.0,93,0.00,,,0.00,Wunderground v.1.15,2013-09-17 04:58:00,